Tracking 35331 objects as of 16-Sep-2026
HD Live streaming from Space Station
objects crossing your sky now

TITAN 3 R/B(1)


TITAN 3 R/B(1) is no longer on orbit


NORAD ID: 20668
Int'l Code: 1990-056B
Launch date: June 23, 1990
Source: United States (US)
Launch site: AIR FORCE EASTERN TEST RANGE (AFETR)
Decay date: 1990-06-26

Note: This is a ROCKET BODY
Your satellite tracking list
Your tracking list is empty




NASA's NSSDC Master Catalog

Two Line Element Set (TLE):
1 20668U 90056  B 90177.88745109  .15189516 -41300-4 +76346-4 0  9997
2 20668 028.6061 237.6145 0021031 140.5968 221.5013 16.53777524000567
Source of the keplerian elements: AFSPC